Groton, South Dakota, United States (57445)
Lat: 45.45N, Lon: 98.1W
Wx Zone: SDZ006
Local Info
Past Weather Observations for Wednesday, July 1, 2015

NOTE: This archive is for the closest National Weather Service station to Groton. Information may differ from the station used for current weather conditions.

Click here for Long-term Archive

Time Weather Temperature Dewpoint Humidity Pressure Winds Precip Visibility
23:53
Overcast
Fog And Mist
66°F / 19°C 63°F / 17°C 88% 29.92 in
(1013 mb)
SE 3.5 mph
(SE 6 kph)
0.00 in
(0.00 mm)
6SM
21:53
Overcast
70°F / 21°C 64°F / 18°C 83% 29.92 in
(1013 mb)
SE 4.6 mph
(SE 7 kph)
0.00 in
(0.00 mm)
7SM
20:53
Mostly Cloudy
70°F / 21°C 64°F / 18°C 83% 29.89 in
(1012 mb)
ENE 3.5 mph
(ENE 6 kph)
0.00 in
(0.00 mm)
7SM
19:53
Partly Cloudy
Hazy
72°F / 22°C 64°F / 18°C 78% 29.89 in
(1012 mb)
SSW 3.5 mph
(SSW 6 kph)
- 6SM
18:53
Partly Cloudy
73°F / 23°C 64°F / 18°C 74% 29.86 in
(1011 mb)
SE 5.8 mph
(SE 9 kph)
- 7SM
16:53
Clear
77°F / 25°C 64°F / 18°C 65% 29.89 in
(1012 mb)
SW 4.6 mph
(SW 7 kph)
- 8SM
15:53
Clear
75°F / 24°C 64°F / 18°C 69% 29.89 in
(1012 mb)
Calm - 8SM
14:53
Partly Cloudy
75°F / 24°C 63°F / 17°C 65% 29.92 in
(1013 mb)
E 4.6 mph
(E 7 kph)
- 8SM
13:53
Partly Cloudy
73°F / 23°C 64°F / 18°C 74% 29.92 in
(1013 mb)
Variable 3.5 mph
(Variable 6 kph)
- 7SM
12:53
Overcast
73°F / 23°C 66°F / 19°C 78% 29.92 in
(1013 mb)
NNE 3.5 mph
(NNE 6 kph)
0.01 in
(0.25 mm)
7SM
11:53
Overcast
73°F / 23°C 64°F / 18°C 74% 29.95 in
(1014 mb)
NW 3.5 mph
(NW 6 kph)
- 7SM
10:53
Overcast
73°F / 23°C 64°F / 18°C 74% 29.95 in
(1014 mb)
SSW 4.6 mph
(SSW 7 kph)
0.00 in
(0.00 mm)
8SM
09:53
Overcast
73°F / 23°C 63°F / 17°C 69% 29.95 in
(1014 mb)
SSE 4.6 mph
(SSE 7 kph)
- 7SM
08:53
Partly Cloudy
73°F / 23°C 63°F / 17°C 69% 29.95 in
(1014 mb)
SE 5.8 mph
(SE 9 kph)
- 8SM
07:53
Clear
70°F / 21°C 64°F / 18°C 83% 29.95 in
(1014 mb)
SE 5.8 mph
(SE 9 kph)
- 7SM
06:53
Clear
Hazy
68°F / 20°C 63°F / 17°C 83% 29.95 in
(1014 mb)
E 8.1 mph
(E 13 kph)
- 6SM
05:53
Clear
Fog And Mist
64°F / 18°C 63°F / 17°C 94% 29.98 in
(1015 mb)
NE 3.5 mph
(NE 6 kph)
- 5SM
04:53
Partly Cloudy
64°F / 18°C 63°F / 17°C 94% 29.98 in
(1015 mb)
Calm - 7SM
03:53
Clear
64°F / 18°C 63°F / 17°C 94% 29.95 in
(1014 mb)
N 3.5 mph
(N 6 kph)
- 8SM
02:53
Partly Cloudy
64°F / 18°C 63°F / 17°C 94% 29.95 in
(1014 mb)
ENE 3.5 mph
(ENE 6 kph)
- 8SM
01:53
Partly Cloudy
64°F / 18°C 61°F / 16°C 88% 29.95 in
(1014 mb)
Calm - 9SM
00:53
Partly Cloudy
66°F / 19°C 61°F / 16°C 83% 29.95 in
(1014 mb)
Calm - 9SM
Time Weather Temperature Dewpoint Humidity Pressure Winds Precip Visibility


Weather for websites

WeatherForYou.com, LLC is not responsible for any damages or problems caused by this service. Current weather conditions are obtained from the closest station including government and personal stations which may have varying degrees of accuracy. Weather forecasts are derived from the NOAA NDFD. Like all things, this site belongs to Jesus Christ... He just trusts us to maintain it. If you have any questions or comments email webmaster@weatherforyou.com

Copyright © 2015, WeatherForYou.com LLC. All rights reserved.